DELTA 1 DEB, 7134

Orbit data source: Space-Track

DELTA 1 DEB, 7134 is space debris in SSO originally from a launch on Tue, 06 Nov 1973 UTC launched from the Air Force Western Test Range (AFWTR). Debris objects in space refer to the collection of defunct objects orbiting the Earth. Examples of debris include non-operational satellites, rocket bodies, and fragments generated from explosions, collisions, or faulty payload assembly.

Loading next visibility...
Identifier
7134, 1973-086CY
Orbit
SSO
Country
Flag of USUS
Related business
Manufacturer
Unknown
Mission
Spacecraft
Bus & Motor
Unknown
Mass
Unknown
Launch date (UTC)
1973-11-06 (53 years ago)
Launch vehicle
Unknown
Launch site
Air Force Western Test Range (AFWTR)
Object type
Payload
Rocket body
Debris
Shape & HBR
Unknown shape, 0.2 m
Radar Cross Section
Medium (>0.1 m² and <1 m²)

Expand to show TLE details & history
Last TLE update: 14 hours ago

TLE from 14 hours ago
0 DELTA 1 DEB
1 07134U 73086CY  26254.35305843 -.00000079  00000-0 -21153-3 0  9992
2 07134 101.8484  29.1852 0013251 127.3598 260.8563 12.52988251410869
Epoch: 2026-09-11T08:28Z
TLE epoch observation values (Epoch: 2026-09-11T08:28:24.248Z)
Latitude
27.45647°
Longitude
-94.52076°
Altitude
1,456.751 km
Speed
7.136 km/s
True Right ascension
01h 31m 49s
True Declination
27° 19' 43"
Sunlit
Object was in full shadow at epoch
Visualization orbit readout
Latitude
Unknown
Longitude
Unknown
Altitude
Unknown
Speed
Unknown
Apparent Right ascension
Unknown
Apparent Declination
Unknown
Sunlit
N/A
Visualization observer readout
Local Sidereal Time
15:09:36
Azimuth
Unknown
Elevation
Unknown
Doppler factor
Unknown
Orbital elements
Apogee altitude
1,459.942 km
Perigee altitude
1,439.197 km
Semi-major axis
7,827.706 km
Eccentricity
0.00133
Inclination
101.8484°
RAAN
29.1852°
Arg. of periapsis
127.3598°
True anomaly
260.70642°
Mean anomaly
260.8563°
Eccentric anomaly
260.78136°
Mean motion
3.13395 °/min
Orbital period
114.87 mins
BSTAR
-0.00021153
Loading maneuver chart data...
Computing Atmospheric mass density...
Loading historical data...
Loading historical data...
Loading historical data...
Loading historical data...
Loading historical data...
Loading historical data...
Loading historical data...

Documentation

Showing up to 5 results
|